This is the latest recevied weather packets stored in our database for station/object KC8YYF. If no packets are shown the sender has not sent any weather packets the latest 10 day(s).
| Time | Temp. | Humidity | Pressure | Rain* | Wind** | Luminosity | Snow |
|---|---|---|---|---|---|---|---|
| 1777416432 | 22.78° C | 58% | 1014.2 hPa | 0 mm | - | 53 W/m² | - |
| 1777416128 | 22.78° C | 57% | 1013.8 hPa | 0 mm | - | 70 W/m² | - |
| 1777415823 | 23.33° C | 58% | 1013.7 hPa | 0 mm | - | 56 W/m² | - |
| 1777415519 | 22.78° C | 57% | 1013.6 hPa | 0 mm | - | 49 W/m² | - |
| 1777415215 | 22.78° C | 58% | 1013.4 hPa | 0 mm | - | 48 W/m² | - |
| 1777414910 | 22.78° C | 58% | 1013.1 hPa | 0 mm | - | 76 W/m² | - |
| 1777414609 | 23.89° C | 57% | 1013 hPa | 0 mm | - | 160 W/m² | - |
| 1777414304 | 23.89° C | 55% | 1013 hPa | 0 mm | - | 73 W/m² | - |
| 1777413999 | 23.33° C | 56% | 1013.1 hPa | 0 mm | - | 39 W/m² | - |
| 1777413694 | 23.33° C | 56% | 1013.4 hPa | 0 mm | - | 45 W/m² | - |
| 1777413391 | 23.89° C | 57% | 1013.1 hPa | 0 mm | - | 133 W/m² | - |
| 1777413087 | 23.89° C | 56% | 1013.6 hPa | 0 mm | - | 280 W/m² | - |
| 1777412787 | 24.44° C | 57% | 1013.5 hPa | 0 mm | - | 306 W/m² | - |
| 1777412481 | 23.89° C | 57% | 1013.6 hPa | 0 mm | - | 299 W/m² | - |
| 1777412178 | 23.89° C | 57% | 1013.7 hPa | 0 mm | - | 328 W/m² | - |
| 1777411875 | 23.89° C | 54% | 1013.6 hPa | 0 mm | - | 335 W/m² | - |
| 1777411574 | 24.44° C | 57% | 1013.7 hPa | 0 mm | - | 346 W/m² | - |
| 1777411269 | 23.89° C | 56% | 1013.4 hPa | 0 mm | - | 350 W/m² | - |
| 1777410963 | 22.78° C | 58% | 1013.1 hPa | 0 mm | - | 391 W/m² | - |
| 1777410662 | 22.22° C | 57% | 1013.4 hPa | 0 mm | - | 89 W/m² | - |
| 1777410357 | 22.78° C | 56% | 1013.5 hPa | 0 mm | - | 110 W/m² | - |
| 1777410051 | 23.33° C | 56% | 1013.4 hPa | 0 mm | - | 215 W/m² | - |
| 1777409746 | 23.89° C | 53% | 1013.4 hPa | 0 mm | - | 295 W/m² | - |
| 1777409443 | 23.89° C | 54% | 1013.1 hPa | 0 mm | - | 506 W/m² | - |
| 1777409138 | 24.44° C | 55% | 1013.4 hPa | 0 mm | - | 584 W/m² | - |
* Rain latest hour (hover to see other rain measurements)
** Current wind speed in m/s (hover to see current wind gust speed)